Montego Bay, Jamaica

6:03 PM EST on June 22, 2018 (GMT -0500)
Sangster International

Weather History for MKJS - October, 2017

Change the Weather History Date:

Thursday, October 12, 2017

  Actual Average Record
Temperature  
Mean Temperature 80 °F -  
Max Temperature 90 °F 85 °F 92 °F (2013)
Min Temperature 71 °F 76 °F 71 °F (2017)
Cooling Degree Days 16    
Growing Degree Days 30 (Base 50)    
Moisture  
Dew Point 75 °F    
Average Humidity 81    
Maximum Humidity 95    
Minimum Humidity 59    
Precipitation  
Precipitation 1.38 in - - ()
Sea Level Pressure  
Sea Level Pressure 29.81 in    
Wind  
Wind Speed 4 mph ()    
Max Wind Speed 20 mph    
Max Gust Speed 36 mph    
Visibility 7.5 miles    
Events Rain , Thunderstorm    
Averages and records for this station are not official NWS values.
T = Trace of Precipitation, MM = Missing Value Source: Averaged Metar Reports

Daily Weather History Graph

Daily Weather History Graph

Search for Another Location

Airport or City:

Astronomy

Oct. 12, 2017 Rise Set
Actual Time 6:04 AM EST 5:51 PM EST
Civil Twilight 5:42 AM EST 6:13 PM EST
Nautical Twilight 5:17 AM EST 6:38 PM EST
Astronomical Twilight 4:52 AM EST 7:03 PM EST
Moon No Moon Rise 12:46 PM EST (10/12)
Length of Visible Light 12h 30m
Length of Day
11h 46m
Waning Gibbous, 48% of the Moon is Illuminated
Oct 12
Waning Gibbous
Oct 19
New
Oct 27
First Quarter
Nov 4
Full
Nov 10
Last Quarter

Hourly Weather History & Observations

Time (EST) Temp. Heat Index Dew Point Humidity Pressure Visibility Wind Dir Wind Speed Gust Speed Precip Events Conditions
12:00 AM 80.6 °F 85.4 °F 73.4 °F 79% 29.80 in 6.2 mi SSE 3.5 mph - N/A   Partly Cloudy
1:00 AM 80 °F - 75 °F 79% 29.81 in 17 mi SE 4.6 mph - -   Scattered Clouds
1:00 AM 80.6 °F 85.4 °F 73.4 °F 79% 29.80 in 6.2 mi SE 4.6 mph - N/A   Partly Cloudy
2:00 AM 78.8 °F - 73.4 °F 83% 29.77 in 6.2 mi SSE 3.5 mph - N/A   Partly Cloudy
3:00 AM 78.8 °F - 73.4 °F 83% 29.77 in 6.2 mi Variable 2.3 mph - N/A   Partly Cloudy
4:00 AM 78.8 °F - 73.4 °F 83% 29.77 in 6.2 mi North 3.5 mph - N/A   Partly Cloudy
5:00 AM 78.8 °F - 73.4 °F 83% 29.77 in 6.2 mi Variable 2.3 mph - N/A   Partly Cloudy
6:00 AM 78.8 °F - 73.4 °F 83% 29.80 in 6.2 mi SSE 3.5 mph - N/A   Partly Cloudy
7:00 AM 81 °F - 75 °F 78% 29.82 in 17 mi 1.2 mph - -   Scattered Clouds
7:00 AM 82.4 °F 89.5 °F 75.2 °F 79% 29.80 in 6.2 mi Variable 1.2 mph - N/A   Partly Cloudy
8:00 AM 86.0 °F 95.1 °F 75.2 °F 70% 29.83 in 6.2 mi Variable 1.2 mph - N/A   Partly Cloudy
9:00 AM 86.0 °F 95.1 °F 75.2 °F 70% 29.83 in 6.2 mi NE 5.8 mph - N/A   Partly Cloudy
10:00 AM 87 °F - 74 °F 59% 29.85 in 19 mi NNE 6.9 mph - -   Scattered Clouds
10:00 AM 87.8 °F 97.6 °F 75.2 °F 66% 29.83 in 6.2 mi NNE 6.9 mph - N/A   Partly Cloudy
11:00 AM 87.8 °F 97.6 °F 75.2 °F 66% 29.83 in 6.2 mi NE 9.2 mph - N/A   Partly Cloudy
12:00 PM 86.0 °F 96.9 °F 77.0 °F 74% 29.80 in 6.2 mi ENE 9.2 mph - N/A   Partly Cloudy
1:00 PM 88 °F - 78 °F 66% 29.80 in 19 mi ENE 9.2 mph - -   Partly Cloudy
1:00 PM 86.0 °F 96.9 °F 77.0 °F 74% 29.77 in 6.2 mi ENE 9.2 mph - N/A   Partly Cloudy
2:00 PM 86.0 °F 96.9 °F 77.0 °F 74% 29.77 in 6.2 mi NE 12.7 mph - N/A   Scattered Clouds
2:16 PM 86.0 °F 96.9 °F 77.0 °F 74% 29.77 in 6.2 mi NE 11.5 mph - N/A Thunderstorm Thunderstorm
2:28 PM 75.2 °F - 71.6 °F 89% 29.77 in 0.6 mi ESE 19.6 mph 35.7 mph N/A Rain , Thunderstorm Thunderstorms and Rain
3:00 PM 71.6 °F - 69.8 °F 94% 29.77 in 1.9 mi ENE 3.5 mph - N/A Rain , Thunderstorm Light Thunderstorms and Rain
3:14 PM 75.2 °F - 69.8 °F 83% 29.80 in 4.3 mi SSE 5.8 mph - N/A Rain , Thunderstorm Light Thunderstorms and Rain
4:00 PM 77 °F - 73 °F 84% 29.80 in 7 mi SSE 8.1 mph - - Rain , Thunderstorm Thunderstorms and Rain
4:00 PM 77.0 °F - 73.4 °F 89% 29.80 in 6.2 mi SSE 8.1 mph - N/A Rain , Thunderstorm Light Thunderstorms and Rain
4:33 PM 78.8 °F - 75.2 °F 89% 29.80 in 6.2 mi ENE 3.5 mph - N/A   Scattered Clouds
5:00 PM 78.8 °F - 75.2 °F 89% 29.80 in 6.2 mi NNW 3.5 mph - N/A   Scattered Clouds
6:00 PM 78.8 °F - 75.2 °F 89% 29.80 in 6.2 mi Variable 2.3 mph - N/A Thunderstorm Partly Cloudy
7:00 PM 78 °F - 77 °F 95% 29.82 in 12 mi 2.3 mph - -   Haze
7:00 PM 78.8 °F - 75.2 °F 89% 29.80 in 6.2 mi Variable 2.3 mph - N/A   Partly Cloudy
7:35 PM 82.4 °F 90.9 °F 77.0 °F 84% 29.86 in 6.2 mi Variable 2.3 mph - N/A Thunderstorm Scattered Clouds
8:00 PM 78.8 °F - 73.4 °F 83% 29.83 in 6.2 mi ESE 6.9 mph - N/A   Partly Cloudy
9:00 PM 78.8 °F - 75.2 °F 89% 29.86 in 6.2 mi Variable 2.3 mph - N/A   Partly Cloudy
10:00 PM 79 °F - 75 °F 84% 29.86 in 12 mi SSE 3.5 mph - -   Scattered Clouds
10:00 PM 78.8 °F - 75.2 °F 89% 29.83 in 6.2 mi SSE 3.5 mph - N/A Thunderstorm Partly Cloudy
11:00 PM 78.8 °F - 73.4 °F 83% 29.83 in 6.2 mi SE 3.5 mph - N/A Thunderstorm Partly Cloudy